Great Bend, NY

8:42 PM EDT on September 26, 2016 (GMT -0400)
Wheeler-Sack Army Air Field

Weather History for KGTB - January, 2013

Change the Weather History Date:

Wednesday, January 30, 2013

  Actual Average Record
Temperature  
Mean Temperature 50 °F -  
Max Temperature 60 °F 25 °F 60 °F (2013)
Min Temperature 41 °F 8 °F -8 °F (2007)
Degree Days  
Heating Degree Days 14    
Moisture  
Dew Point 49 °F    
Average Humidity 92    
Maximum Humidity 100    
Minimum Humidity 77    
Precipitation  
Precipitation 0.26 in - - ()
Sea Level Pressure  
Sea Level Pressure 29.41 in    
Wind  
Wind Speed 18 mph (SSE)    
Max Wind Speed 29 mph    
Max Gust Speed 41 mph    
Visibility 10 miles    
Events Rain    
Averages and records for this station are not official NWS values.
T = Trace of Precipitation, MM = Missing Value Source: NWS Daily Summary

Daily Weather History Graph

Daily Weather History Graph

Search for Another Location

Airport or City:

Trip Planner

Search our weather history database for the weather conditions in past years. The results will help you decide how hot, cold, wet, or windy it might be!

Date:

Astronomy

Jan. 30, 2013 Rise Set
Actual Time 7:22 AM EST 5:10 PM EST
Civil Twilight 6:51 AM EST 5:41 PM EST
Nautical Twilight 6:16 AM EST 6:16 PM EST
Astronomical Twilight 5:42 AM EST 6:50 PM EST
Moon 9:17 PM EST (1/30) 8:39 AM EST (1/30)
Length of Visible Light 10h 50m
Length of Day
9h 48m
Waning Gibbous, 88% of the Moon is Illuminated
Jan 30
Waning Gibbous
Feb 3
Last Quarter
Feb 10
New
Feb 17
First Quarter
Feb 25
Full

Hourly Weather History & Observations

Time (EST) Temp. Windchill Dew Point Humidity Pressure Visibility Wind Dir Wind Speed Gust Speed Precip Events Conditions
12:06 AM 41.0 °F 33.1 °F 41.0 °F 100% 29.80 in 10.0 mi SE 15.0 mph - N/A   Light Drizzle
12:15 AM 41.0 °F 33.1 °F 41.0 °F 100% 29.80 in 10.0 mi SSE 15.0 mph - N/A   Overcast
12:36 AM 41.0 °F 33.5 °F 41.0 °F 100% 29.78 in 10.0 mi SSE 13.8 mph - N/A Rain Light Rain
12:38 AM 41.0 °F 33.1 °F 41.0 °F 100% 29.78 in 10.0 mi SSE 15.0 mph - N/A Rain Light Rain
12:54 AM 41.0 °F 33.1 °F 41.0 °F 100% 29.78 in 10.0 mi SSE 15.0 mph - N/A Rain Light Rain
12:55 AM 41.7 °F 34.1 °F 41.7 °F 100% 29.78 in 10.0 mi SSE 15.0 mph - 0.01 in Rain Light Rain
12:58 AM 41.0 °F 32.8 °F 41.0 °F 100% 29.78 in 10.0 mi SSE 16.1 mph - N/A Rain Light Rain
1:20 AM 42.8 °F 34.8 °F 42.8 °F 100% 29.75 in 10.0 mi SSE 17.3 mph - N/A   Overcast
1:28 AM 42.8 °F 34.8 °F 42.8 °F 100% 29.75 in 10.0 mi SSE 17.3 mph - N/A   Overcast
1:55 AM 42.3 °F 33.6 °F 42.3 °F 100% 29.73 in 10.0 mi SSE 19.6 mph - 0.00 in   Overcast
1:58 AM 42.8 °F 34.8 °F 42.8 °F 100% 29.73 in 10.0 mi SSE 17.3 mph - N/A Rain Light Rain
2:55 AM 43.0 °F 34.5 °F 43.0 °F 100% 29.68 in 10.0 mi SSE 19.6 mph - 0.02 in Rain Light Rain
3:05 AM 42.8 °F 34.0 °F 42.8 °F 100% 29.67 in 10.0 mi SSE 20.7 mph - N/A   Mostly Cloudy
3:55 AM 43.7 °F 35.4 °F 43.7 °F 100% 29.64 in 10.0 mi SSE 19.6 mph - 0.00 in   Mostly Cloudy
4:55 AM 43.9 °F 35.9 °F 43.9 °F 100% 29.59 in 10.0 mi SE 18.4 mph - N/A   Mostly Cloudy
5:55 AM 46.2 °F 39.3 °F 45.7 °F 98% 29.57 in 10.0 mi SE 17.3 mph - N/A   Clear
6:55 AM 47.5 °F - 45.3 °F 92% 29.52 in 10.0 mi SE 20.7 mph - N/A   Clear
7:55 AM 46.8 °F - 44.6 °F 92% 29.49 in 10.0 mi SE 21.9 mph 28.8 mph N/A   Clear
8:55 AM 47.7 °F - 45.0 °F 90% 29.47 in 10.0 mi SSE 21.9 mph 28.8 mph N/A   Clear
9:55 AM 49.3 °F - 46.2 °F 89% 29.44 in 10.0 mi SE 23.0 mph 31.1 mph N/A   Overcast
10:55 AM 49.6 °F - 47.1 °F 91% 29.41 in 10.0 mi SSE 18.4 mph - N/A   Partly Cloudy
11:54 AM 50.0 °F - 48.2 °F 94% 29.38 in 10.0 mi SSE 15.0 mph - N/A Rain Light Rain
11:55 AM 50.7 °F - 48.0 °F 90% 29.38 in 10.0 mi SE 16.1 mph - 0.00 in Rain Light Rain
12:33 PM 57.2 °F - 53.6 °F 88% 29.35 in 9.0 mi South 26.5 mph 34.5 mph N/A   Overcast
12:55 PM 55.8 °F - 53.4 °F 92% 29.35 in 8.0 mi South 23.0 mph 32.2 mph 0.04 in   Overcast
12:57 PM 55.4 °F - 53.6 °F 94% 29.35 in 7.0 mi South 21.9 mph 32.2 mph N/A Rain Rain
1:07 PM 55.4 °F - 53.6 °F 94% 29.35 in 7.0 mi South 24.2 mph 31.1 mph N/A   Overcast
1:38 PM 55.4 °F - 53.6 °F 94% 29.31 in 10.0 mi South 23.0 mph 31.1 mph N/A Rain Light Rain
1:53 PM 57.2 °F - 55.4 °F 94% 29.29 in 10.0 mi South 26.5 mph 33.4 mph N/A   Mostly Cloudy
1:55 PM 56.7 °F - 54.9 °F 94% 29.29 in 10.0 mi South 28.8 mph 33.4 mph 0.07 in   Mostly Cloudy
2:55 PM 59.2 °F - 53.8 °F 82% 29.29 in 10.0 mi SSW 23.0 mph 32.2 mph N/A   Partly Cloudy
3:39 PM 60.8 °F - 53.6 °F 77% 29.30 in 10.0 mi SSW 25.3 mph 34.5 mph N/A   Light Drizzle
3:55 PM 59.7 °F - 53.4 °F 80% 29.32 in 10.0 mi SSW 20.7 mph 33.4 mph 0.00 in Rain Light Rain
4:07 PM 59.0 °F - 53.6 °F 82% 29.31 in 10.0 mi South 24.2 mph 41.4 mph N/A   Clear
4:10 PM 59.0 °F - 53.6 °F 82% 29.31 in 10.0 mi South 25.3 mph 41.4 mph N/A Rain Light Rain
4:40 PM 59.0 °F - 53.6 °F 82% 29.29 in 10.0 mi South 20.7 mph 32.2 mph N/A   Partly Cloudy
4:49 PM 59.0 °F - 53.6 °F 82% 29.31 in 10.0 mi South 17.3 mph 25.3 mph N/A   Light Drizzle
4:55 PM 58.1 °F - 53.2 °F 84% 29.30 in 10.0 mi South 19.6 mph 27.6 mph 0.00 in Rain Light Rain
5:10 PM 57.2 °F - 51.8 °F 82% 29.26 in 10.0 mi South 20.7 mph - N/A   Clear
5:55 PM 53.6 °F - 52.3 °F 95% 29.30 in 10.0 mi SSE 5.8 mph - 0.00 in   Clear
6:55 PM 58.1 °F - 51.8 °F 80% 29.30 in 10.0 mi South 23.0 mph 29.9 mph N/A   Clear
7:55 PM 57.4 °F - 50.7 °F 78% 29.24 in 10.0 mi South 26.5 mph 32.2 mph N/A   Partly Cloudy
8:48 PM 57.2 °F - 51.8 °F 82% 29.22 in 10.0 mi SSE 25.3 mph 39.1 mph N/A Rain Light Rain
8:55 PM 56.1 °F - 51.1 °F 83% 29.22 in 10.0 mi South 25.3 mph 33.4 mph 0.00 in Rain Light Rain
9:34 PM 55.4 °F - 51.8 °F 88% 29.21 in 10.0 mi SSE 20.7 mph 33.4 mph N/A   Mostly Cloudy
9:37 PM 55.4 °F - 51.8 °F 88% 29.21 in 10.0 mi SSE 19.6 mph 32.2 mph N/A Rain Light Rain
9:55 PM 54.3 °F - 52.2 °F 92% 29.21 in 10.0 mi SSE 17.3 mph - 0.02 in Rain Light Rain
10:55 PM 54.0 °F - 52.3 °F 94% 29.18 in 10.0 mi South 19.6 mph 26.5 mph 0.02 in Rain Light Rain
11:17 PM 53.6 °F - 51.8 °F 94% 29.16 in 10.0 mi South 17.3 mph - N/A Rain Light Rain
11:21 PM 53.6 °F - 51.8 °F 94% 29.16 in 10.0 mi South 18.4 mph 28.8 mph N/A Rain Light Rain
11:26 PM 53.6 °F - 51.8 °F 94% 29.15 in 10.0 mi South 20.7 mph 28.8 mph N/A Rain Light Rain
11:34 PM 53.6 °F - 51.8 °F 94% 29.14 in 10.0 mi South 15.0 mph 26.5 mph N/A Rain Light Rain
11:35 PM 53.6 °F - 51.8 °F 94% 29.14 in 10.0 mi South 16.1 mph 26.5 mph N/A Rain Rain
11:37 PM 53.6 °F - 51.8 °F 94% 29.14 in 10.0 mi South 15.0 mph - N/A Rain Rain
11:55 PM 53.2 °F - 52.3 °F 97% 29.12 in 10.0 mi SSE 16.1 mph 24.2 mph 0.08 in Rain Light Rain